Regional Weather Roundup
Issued by NWS Grand Forks, ND

Home | Current Version | Previous Version | Graphics & Text | Print | Product List | Glossary On
Versions: 1 2 3 4 5 6 7 8 9 10 11 12 13 14 15 16 17 18 19 20 21 22 23 24 25 26 27 28 29 30 31 32 33 34 35 36 37 38 39 40 41 42 43 44 45 46 47 48 49 50
000
ASUS43 KFGF 290610
RWRFGF
PRAIRIE TO PINES  WEATHER ROUNDUP
NATIONAL WEATHER SERVICE EASTERN NORTH DAKOTA/GRAND FORKS ND
100 AM CDT SAT APR 29 2017

 **SATELLITE DATA USED TO AUGMENT SKY COVER AT AUTOMATED STATIONS**
 *****  WEATHER ACROSS EASTERN NORTH DAKOTA  *****

CITY           SKY/WX    TMP DP  RH WIND       PRES   REMARKS
GRAND FORKS    FAIR      35  28  75 NW3       30.20R
6HR MIN TEMP:  33; 6HR MAX TEMP:  54;

GRAND FRKS AFB FAIR      33  26  75 NW5       30.21R
DEVILS LAKE    FAIR      36  27  69 S3        30.22R
6HR MIN TEMP:  34; 6HR MAX TEMP:  54;

FARGO          FAIR      32  25  75 CALM      30.20R
WAHPETON ARPT  FAIR      32  25  74 W6        30.20R
$$

 ***** WEATHER ACROSS CENTRAL AND WESTERN NORTH DAKOTA  *****

CITY           SKY/WX    TMP DP  RH WIND       PRES   REMARKS
BISMARCK       FAIR      33  24  69 CALM      30.21S
6HR MIN TEMP:  30; 6HR MAX TEMP:  57;

MINOT          FAIR      40  21  46 CALM      30.17F
6HR MIN TEMP:  40; 6HR MAX TEMP:  57;

JAMESTOWN      FAIR      33  30  88 NE5       30.20R
6HR MIN TEMP:  32; 6HR MAX TEMP:  53;

MINOT AFB      FAIR      36  23  60 S3        30.17S
GARRISON         N/A     37  20  50 CALM      30.18S
WILLISTON      FAIR      43  25  49 CALM      30.16S
6HR MIN TEMP:  40; 6HR MAX TEMP:  57;

DICKINSON      FAIR      29  16  58 S7        30.18R WCI  22
6HR MIN TEMP:  29; 6HR MAX TEMP:  53;

HETTINGER      FAIR      29  22  75 CALM      30.21S
6HR MIN TEMP:  29; 6HR MAX TEMP:  52;

$$

 *****  OTHER AIRPORT OBSERVATIONS IN OUR AREA  *****

CITY           SKY/WX    TMP DP  RH WIND       PRES   REMARKS
WALHALLA       NOT AVBL
GRAFTON AIRPOR FAIR      36  21  55 N6        30.22R
VALLEY CITY AR FAIR      37  21  52 CALM      30.22R
CANDO          NOT AVBL
CAVALIER APRT  FAIR      30  21  69 NW3       30.21R
GWINNER        CLEAR     39  25  56 MISG      30.19S
SHEYENNE NWR     N/A     32  20  62 CALM      29.95S
ROLLA          FAIR      36  18  48 CALM      30.20S
 ***** THE ABOVE OBSERVATIONS ARE NON NWS ARE NOT QUALITY
       CONTROLLED AND MAY MIS-REPORT RAIN FOR SNOW...
$$

  *****  WEATHER ACROSS NORTHERN MINNESOTA  *****

CITY           SKY/WX    TMP DP  RH WIND       PRES   REMARKS
FLAG ISLAND    FAIR      34  27  75 NW3       30.18R
WARROAD        FAIR      34  16  47 NW6       30.20R
ROSEAU         FAIR      36  16  44 NW5       30.20R
HALLOCK        FAIR      30  23  74 N3        30.21R
THF RVR FALLS  FAIR      34  19  54 N5        30.21R
6HR MIN TEMP:  32; 6HR MAX TEMP:  49;

BAUDETTE       NOT AVBL
WASKISH        FAIR      27  25  93 CALM      30.19R
CROOKSTON      FAIR      39  21  48 E3        30.22R
STEPHEN NDAWN    N/A     30  25  80 NE2         N/A
GREENBUSH NDAW   N/A     30  25  80 W3          N/A
$$
  *****  WEATHER ACROSS CENTRAL AND WEST MINNESOTA  *****

CITY           SKY/WX    TMP DP  RH WIND       PRES   REMARKS
FOSSTON        FAIR      25  18  74 CALM      30.21R
BEMIDJI        FAIR      28  22  76 CALM      30.19R
PARK RAPIDS    FAIR      30  20  66 S3        30.19R
6HR MIN TEMP:  30; 6HR MAX TEMP:  50;

ELBOW LAKE     FAIR      36  34  90 E3        30.19R
6HR MIN TEMP:  35; 6HR MAX TEMP:  49;

WADENA         FAIR      30  21  69 N3        30.18R
DETROIT LAKES  FAIR      34  27  75 CALM      30.20R
MOORHEAD       FAIR      36  27  69 CALM      30.21R
FERGUS FALLS   FAIR      36  23  60 E5        30.20R
MORRIS MN      FAIR      34  25  69 CALM      30.18R
STAPLES        FAIR      30  23  74 CALM      30.19R
$$
  *****  WEATHER ELSEWHERE ACROSS MINNESOTA  *****

CITY           SKY/WX    TMP DP  RH WIND       PRES   REMARKS
DULUTH         FAIR      33  25  72 N5        30.17R
6HR MIN TEMP:  31; 6HR MAX TEMP:  46;

INTRNTL FALLS  FAIR      25  21  85 CALM      30.18R
6HR MIN TEMP:  24; 6HR MAX TEMP:  45;

ELY            FAIR      25  23  93 CALM      30.16R
CLOQUET        FAIR      32  23  69 N3        30.17R
WHEATON        FAIR      36  23  60 CALM      30.21R
BRAINERD       FAIR      34  23  64 CALM      30.19R
6HR MIN TEMP:  33; 6HR MAX TEMP:  50;

HIBBING        FAIR      24  22  91 CALM      30.18R
6HR MIN TEMP:  23; 6HR MAX TEMP:  41;

ALEXANDRIA     FAIR      39  21  48 N5        30.19R
6HR MIN TEMP:  37; 6HR MAX TEMP:  50;

SAINT CLOUD    FAIR      40  23  50 NE6       30.18R
6HR MIN TEMP:  39; 6HR MAX TEMP:  50;

MINNEAPOLIS    FAIR      44  25  47 N17       30.15R
6HR MIN TEMP:  40; 6HR MAX TEMP:  50;

$$

  *****  WEATHER ACROSS SOUTH DAKOTA  *****

CITY           SKY/WX    TMP DP  RH WIND       PRES   REMARKS
SIOUX FALLS    FAIR      37  27  67 N7        30.15R
6HR MIN TEMP:  37; 6HR MAX TEMP:  49;

BROOKINGS      FAIR      37  24  59 N8        30.16R
WATERTOWN      FAIR      32  20  61 N5        30.16R
6HR MIN TEMP:  28; 6HR MAX TEMP:  48;

HURON          FAIR      28  21  75 CALM      30.20R
6HR MIN TEMP:  27; 6HR MAX TEMP:  52;

SISSETON         N/A     31  24  75 NW5       30.19R
ABERDEEN       FAIR      35  23  61 NW3       30.21R
6HR MIN TEMP:  32; 6HR MAX TEMP:  53;

MITCHELL       FAIR      34  24  67 NW3       30.20R
PIERRE         FAIR      39  18  42 SE3       30.20R
6HR MIN TEMP:  35; 6HR MAX TEMP:  51;

MOBRIDGE       FAIR      32  16  51 CALM      30.19R
RAPID CITY     FAIR      36  20  52 CALM      30.19S
6HR MIN TEMP:  34; 6HR MAX TEMP:  46;

$$

  *****  SOME WEATHER IN NEARBY STATES *****

CITY           SKY/WX    TMP DP  RH WIND       PRES   REMARKS
GLASGOW MT     CLOUDY    42  36  79 N5        30.16F
6HR MIN TEMP:  42; 6HR MAX TEMP:  57;

GREAT FALLS MT FAIR      34  30  85 S6        30.18S
6HR MIN TEMP:  32; 6HR MAX TEMP:  44;

CHEYENNE WY    LGT SNOW  27  25  92 NE12      30.10R FOG     WCI  17
6HR MIN TEMP:  26; 6HR MAX TEMP:  29; 6HR PCP:  0.01;

SCOTTSBLUFF NE CLOUDY    34  31  88 SW5       30.15R
6HR MIN TEMP:  34; 6HR MAX TEMP:  35; 6HR PCP:  0.05;

OMAHA NE       CLOUDY    44  37  76 N12       30.08S
6HR MIN TEMP:  42; 6HR MAX TEMP:  44; 6HR PCP:  0.01;

DES MOINES IA  CLOUDY    45  38  76 N15       30.04F
6HR MIN TEMP:  45; 6HR MAX TEMP:  45;

DAVENPORT IA   CLOUDY    45  43  93 N22G28    29.98F FOG
6HR MIN TEMP:  45; 6HR MAX TEMP:  47;

CHICAGO IL     CLOUDY    46  40  79 NE14      30.00F
6HR MIN TEMP:  46; 6HR MAX TEMP:  55;

EAU CLAIRE WI  FAIR      33  31  92 N3        30.12R
6HR MIN TEMP:  32; 6HR MAX TEMP:  48;

LA CROSSE WI   MOCLDY    44  32  62 N5        30.13R
6HR MIN TEMP:  41; 6HR MAX TEMP:  49;

$$

  *****  SOME NATIONAL WEATHER *****

CITY           SKY/WX    TMP DP  RH WIND       PRES   REMARKS
LA GUARDIA NY  CLOUDY    74  55  51 SW9       30.02F
6HR MIN TEMP:  73; 6HR MAX TEMP:  78;

RALEIGH NC     FAIR      76  72  87 S10       30.11S
6HR MIN TEMP:  76; 6HR MAX TEMP:  82;

ATLANTA GA     MOCLDY    74  66  76 S8        30.09F
6HR MIN TEMP:  74; 6HR MAX TEMP:  81;

NEW ORLEANS LA CLOUDY    78  74  87 SE13      29.94S
6HR MIN TEMP:  78; 6HR MAX TEMP:  81;

OKLAHOMA CITY  CLOUDY    67  63  87 E17       29.59F
6HR MIN TEMP:  67; 6HR MAX TEMP:  74;

ALBUQUERQUE NM CLOUDY    39  34  82 SE6       29.85F
6HR MIN TEMP:  39; 6HR MAX TEMP:  42; 6HR PCP:  0.03;

SALT LAKE CITY MOCLDY    41  35  79 N7        30.03S
6HR MIN TEMP:  40; 6HR MAX TEMP:  46; 6HR PCP:  0.01;

LOS ANGELES CA FAIR      72  29  20 N15G23    29.82R
6HR MIN TEMP:  64; 6HR MAX TEMP:  78;

BOISE ID       FAIR



USA.gov is the U.S. government's official web portal to all federal, state and local government web resources and services.